Location: Delettes
(50.6178°N, 2.2123°E)
Time: 01:32:00
(UTC+00:00)

Meteor 1-13 Rocket - Pass Details

Date: 27 February 2020
Orbit: 829 x 913 km, 81.3° (Epoch: 09 April)

Event Time Altitude Azimuth Distance (km) Brightness Sun altitude
Rises 19:32:43 0° 347° (NNW) 3,538 7.8 -20.4°
Reaches altitude 10° 19:35:13 10° 349° (N) 2,584 7.0 -20.8°
Maximum altitude 19:41:08 81° 77° (ENE) 901 4.2 -21.7°
Enters shadow 19:44:43 24° 163° (SSE) 1,720 5.5 -22.3°
